Weather History for Hobart, OK

Change the Weather History Date:

Thursday, February 28, 2013

  Actual Average Record
Temperature  
Mean Temperature 38 °F -  
Max Temperature 51 °F 53 °F 81 °F (2006)
Min Temperature 26 °F 30 °F 19 °F (2002)
Degree Days  
Heating Degree Days 26    
Moisture  
Dew Point 26 °F    
Average Humidity 68    
Maximum Humidity 93    
Minimum Humidity 35    
Precipitation  
Precipitation 0.00 in - - ()
Sea Level Pressure  
Sea Level Pressure 30.28 in    
Wind  
Wind Speed 9 mph (NNW)    
Max Wind Speed 20 mph    
Max Gust Speed 25 mph    
Visibility 9 miles    
Events      
Averages and records for this station are not official NWS values.
T = Trace of Precipitation, MM = Missing Value Source: NWS Daily Summary

Daily Weather History Graph

Daily Weather History Graph

Search for Another Location

Airport:

Trip Planner

Search our weather history database for the weather conditions in past years. The results will help you decide how hot, cold, wet, or windy it might be!

Date:

Astronomy

Feb. 28, 2013 Rise Set
Actual Time 7:06 AM CST 6:31 PM CST
Civil Twilight 6:41 AM CST 6:56 PM CST
Nautical Twilight 6:11 AM CST 7:26 PM CST
Astronomical Twilight 5:42 AM CST 7:55 PM CST
Moon 9:49 PM CST (2/28) 8:26 AM CST (2/28)
Length of Visible Light 12h 15m
Length of Day
11h 24m
Waning Gibbous, 90% of the Moon is Illuminated
Feb 28
Waning Gibbous
Mar 4
Last Quarter
Mar 11
New
Mar 19
First Quarter
Mar 27
Full

Hourly Weather History & Observations

Time (CST) Temp. Windchill Dew Point Humidity Pressure Visibility Wind Dir Wind Speed Gust Speed Precip Events Conditions
12:53 AM 26.6 °F 19.1 °F 24.8 °F 93% 30.26 in 8.0 mi WNW 6.9 mph - N/A   Clear
1:53 AM 28.9 °F 21.9 °F 25.0 °F 85% 30.30 in 10.0 mi WNW 6.9 mph - N/A   Clear
2:53 AM 28.0 °F 20.0 °F 25.0 °F 88% 30.30 in 10.0 mi NW 8.1 mph - N/A   Clear
3:53 AM 28.0 °F 20.8 °F 25.0 °F 88% 30.28 in - NW 6.9 mph - N/A   Clear
4:53 AM 27.0 °F 18.7 °F 24.1 °F 89% 30.29 in - WNW 8.1 mph - N/A   Clear
5:53 AM 26.1 °F 17.6 °F 24.1 °F 92% 30.29 in 8.0 mi West 8.1 mph - N/A   Clear
6:53 AM 27.0 °F 18.7 °F 24.1 °F 89% 30.30 in 6.0 mi WNW 8.1 mph - N/A   Clear
7:53 AM 28.0 °F - 25.0 °F 88% 30.31 in 5.0 mi Calm Calm - N/A   Clear
8:53 AM 34.0 °F 25.0 °F 27.0 °F 75% 30.32 in 10.0 mi NNW 12.7 mph - N/A   Clear
9:53 AM 39.0 °F 31.0 °F 28.9 °F 67% 30.32 in 10.0 mi NNW 13.8 mph - N/A   Clear
10:53 AM 44.1 °F 37.7 °F 30.0 °F 58% 30.32 in 10.0 mi NNW 12.7 mph 20.7 mph N/A   Clear
11:53 AM 46.9 °F - 28.9 °F 50% 30.32 in 10.0 mi North 12.7 mph - N/A   Clear
12:53 PM 48.9 °F - 30.0 °F 48% 30.31 in 10.0 mi NNW 15.0 mph - N/A   Clear
1:53 PM 50.0 °F - 28.0 °F 43% 30.27 in 10.0 mi NNW 10.4 mph 25.3 mph N/A   Clear
2:53 PM 51.1 °F - 27.0 °F 39% 30.26 in 10.0 mi NNW 18.4 mph - N/A   Clear
3:53 PM 51.1 °F - 24.1 °F 35% 30.25 in 10.0 mi NNW 19.6 mph - N/A   Clear
4:53 PM 50.0 °F - 24.1 °F 36% 30.25 in 10.0 mi North 12.7 mph - N/A   Clear
5:53 PM 48.0 °F - 25.0 °F 41% 30.26 in 10.0 mi North 11.5 mph - N/A   Clear
6:53 PM 39.9 °F 34.5 °F 28.0 °F 63% 30.26 in 10.0 mi North 8.1 mph - N/A   Clear
7:53 PM 37.0 °F 32.4 °F 27.0 °F 67% 30.27 in 10.0 mi NE 5.8 mph - N/A   Clear
8:53 PM 36.0 °F 33.3 °F 26.1 °F 67% 30.27 in 10.0 mi NE 3.5 mph - N/A   Clear
9:53 PM 34.0 °F 28.8 °F 26.1 °F 73% 30.27 in 10.0 mi NE 5.8 mph - N/A   Clear
10:53 PM 30.9 °F 24.3 °F 25.0 °F 79% 30.25 in 10.0 mi ENE 6.9 mph - N/A   Clear
11:53 PM 28.4 °F 24.6 °F 24.8 °F 86% 30.23 in 10.0 mi WSW 3.5 mph - N/A   Clear